BOH111 LEIB-LFMD

Flight info

Callsign BOH111
Flight time 1h 6m
Altitude 35000
Route KABRE DCT ELTAN DCT MHN DCT MEROS DCT LAPIT DCT CHELY DCT LUMAS DCT SOFFY DCT MRM DCT ABLAK
Aircraft C750/M-SBDE3FGHRWXY/S

Departure

Time 2026-05-04 07:27
Airport Ibiza Airport (LEIB)

Arrival

Time 2026-05-04 08:33
Airport Cannes Mandelieu Airport (LFMD)
Time Latitude Longitude Altitude Speed Heading
2026-05-04 07:12 38.87693 1.37547 -22 ft 0 kts 153°
2026-05-04 07:22 38.87713 1.37522 5 ft 7 kts 262°
2026-05-04 07:22 38.87676 1.37495 5 ft 7 kts 152°
2026-05-04 07:23 38.87638 1.37521 5 ft 6 kts 152°
2026-05-04 07:23 38.87597 1.37549 5 ft 8 kts 152°
2026-05-04 07:23 38.87598 1.37620 5 ft 11 kts 59°
2026-05-04 07:23 38.87635 1.37709 5 ft 12 kts 62°
2026-05-04 07:24 38.87681 1.37820 6 ft 16 kts 62°
2026-05-04 07:24 38.87741 1.37962 6 ft 20 kts 62°
2026-05-04 07:24 38.87805 1.38115 6 ft 19 kts 62°
2026-05-04 07:24 38.87865 1.38262 6 ft 18 kts 62°
2026-05-04 07:25 38.87921 1.38399 5 ft 17 kts 62°
2026-05-04 07:26 38.87182 1.37045 429 ft 142 kts 243°
2026-05-04 07:27 38.86610 1.36020 1148 ft 146 kts 228°
2026-05-04 07:27 38.85889 1.35008 1699 ft 164 kts 230°
2026-05-04 07:27 38.85081 1.33802 2118 ft 192 kts 229°
2026-05-04 07:27 38.84167 1.32443 2764 ft 204 kts 229°
2026-05-04 07:28 38.83241 1.31070 3787 ft 204 kts 229°
2026-05-04 07:28 38.82311 1.29694 4837 ft 206 kts 229°
2026-05-04 07:28 38.81347 1.28312 5798 ft 210 kts 225°
2026-05-04 07:28 38.79963 1.27408 6188 ft 244 kts 194°
2026-05-04 07:29 38.78176 1.27487 6735 ft 266 kts 173°
2026-05-04 07:29 38.76390 1.27952 7810 ft 266 kts 172°
2026-05-04 07:29 38.74549 1.28394 8825 ft 272 kts 174°
2026-05-04 07:29 38.72668 1.28810 9815 ft 277 kts 174°
2026-05-04 07:30 38.70748 1.29246 10624 ft 283 kts 174°
2026-05-04 07:30 38.68798 1.29724 11371 ft 292 kts 172°
2026-05-04 07:30 38.66879 1.30992 11397 ft 337 kts 144°
2026-05-04 07:30 38.65393 1.33510 11418 ft 376 kts 117°
2026-05-04 07:31 38.64954 1.36824 12205 ft 384 kts 90°
2026-05-04 07:31 38.65544 1.40179 12905 ft 390 kts 71°
2026-05-04 07:33 38.73309 1.63693 17053 ft 430 kts 67°
2026-05-04 07:33 38.74430 1.67272 17672 ft 436 kts 68°
2026-05-04 07:33 38.75557 1.70909 18284 ft 442 kts 68°
2026-05-04 07:33 38.76731 1.74579 18852 ft 448 kts 67°
2026-05-04 07:34 38.77923 1.78274 19465 ft 452 kts 68°
2026-05-04 07:34 38.79112 1.82038 20074 ft 457 kts 68°
2026-05-04 07:34 38.80302 1.85838 20699 ft 462 kts 68°
2026-05-04 07:34 38.81499 1.89625 21297 ft 467 kts 68°
2026-05-04 07:35 38.82730 1.93501 21908 ft 472 kts 69°
2026-05-04 07:35 38.83966 1.97423 22523 ft 477 kts 69°
2026-05-04 07:35 38.85210 2.01391 23123 ft 482 kts 69°
2026-05-04 07:35 38.86472 2.05410 23692 ft 487 kts 69°
2026-05-04 07:36 38.87744 2.09456 24239 ft 491 kts 69°
2026-05-04 07:36 38.89019 2.13522 24773 ft 494 kts 69°
2026-05-04 07:38 38.98173 2.42923 28291 ft 519 kts 70°
2026-05-04 07:38 38.99512 2.47250 28788 ft 523 kts 70°
2026-05-04 07:38 39.00856 2.51600 29273 ft 526 kts 70°
2026-05-04 07:38 39.02214 2.56000 29758 ft 530 kts 70°
2026-05-04 07:39 39.03576 2.60422 30204 ft 534 kts 70°
2026-05-04 07:39 39.04942 2.64866 30604 ft 537 kts 70°
2026-05-04 07:39 39.06319 2.69350 30981 ft 540 kts 70°
2026-05-04 07:39 39.07696 2.73841 31588 ft 538 kts 70°
2026-05-04 07:40 39.09067 2.78323 32175 ft 538 kts 70°
2026-05-04 07:40 39.10440 2.82818 32696 ft 539 kts 69°
2026-05-04 07:40 39.11810 2.87308 33259 ft 538 kts 69°
2026-05-04 07:40 39.13177 2.91797 33840 ft 538 kts 69°
2026-05-04 07:41 39.14587 2.96247 34343 ft 538 kts 65°
2026-05-04 07:41 39.16283 3.00528 34839 ft 535 kts 62°
2026-05-04 07:41 39.18008 3.04822 34998 ft 544 kts 62°
2026-05-04 07:41 39.19738 3.09205 35005 ft 555 kts 62°
2026-05-04 07:42 39.21499 3.13693 35013 ft 566 kts 62°
2026-05-04 07:42 39.23306 3.18258 35013 ft 577 kts 62°
2026-05-04 07:42 39.26986 3.27556 35012 ft 593 kts 62°
2026-05-04 07:43 39.30738 3.37128 35039 ft 594 kts 62°
2026-05-04 07:43 39.34493 3.46683 35012 ft 596 kts 63°
2026-05-04 07:44 39.38199 3.56188 35019 ft 596 kts 63°
2026-05-04 07:44 39.41957 3.65822 35019 ft 596 kts 63°
2026-05-04 07:45 39.45650 3.75344 35019 ft 596 kts 63°
2026-05-04 07:45 39.49365 3.84936 35001 ft 595 kts 63°
2026-05-04 07:46 39.53062 3.94524 35019 ft 595 kts 63°
2026-05-04 07:46 39.56930 4.03999 34999 ft 593 kts 56°
2026-05-04 07:47 39.62224 4.12110 35002 ft 587 kts 39°
2026-05-04 07:49 39.91415 4.22717 35027 ft 548 kts 356°
2026-05-04 07:49 39.99020 4.24324 35019 ft 559 kts
2026-05-04 07:50 40.06610 4.26562 35014 ft 556 kts
2026-05-04 07:50 40.14239 4.28063 35001 ft 555 kts
2026-05-04 07:51 40.21839 4.30044 35011 ft 557 kts
2026-05-04 07:51 40.29468 4.31737 35008 ft 555 kts
2026-05-04 07:52 40.37082 4.33604 35001 ft 557 kts
2026-05-04 07:52 40.44687 4.35386 35002 ft 554 kts
2026-05-04 07:54 40.75061 4.42661 35005 ft 555 kts
2026-05-04 07:55 40.82659 4.44477 35022 ft 555 kts
2026-05-04 07:55 40.90260 4.46318 35003 ft 555 kts
2026-05-04 07:56 40.97866 4.48156 35003 ft 555 kts
2026-05-04 07:56 41.05469 4.50007 35018 ft 556 kts
2026-05-04 07:57 41.13028 4.51843 34998 ft 556 kts
2026-05-04 07:57 41.20637 4.53699 34999 ft 556 kts
2026-05-04 07:58 41.28251 4.55560 34994 ft 556 kts
2026-05-04 07:58 41.35877 4.57428 34989 ft 558 kts
2026-05-04 07:59 41.43468 4.59295 34986 ft 552 kts
2026-05-04 07:59 41.51034 4.61151 34995 ft 553 kts
2026-05-04 08:00 41.58608 4.63026 34995 ft 553 kts
2026-05-04 08:02 41.88533 4.72629 34997 ft 555 kts 11°
2026-05-04 08:02 41.95949 4.75531 34994 ft 555 kts 12°
2026-05-04 08:03 42.03353 4.78469 34998 ft 555 kts 11°
2026-05-04 08:03 42.09517 4.80880 35001 ft 555 kts 12°
2026-05-04 08:04 42.16919 4.83835 34998 ft 554 kts 12°
2026-05-04 08:04 42.24262 4.86737 34644 ft 536 kts 12°
2026-05-04 08:05 42.27766 4.88142 34153 ft 514 kts 12°
2026-05-04 08:05 42.31124 4.89483 33617 ft 495 kts 12°
2026-05-04 08:05 42.34394 4.90777 33140 ft 483 kts 12°
2026-05-04 08:05 42.37595 4.92045 32691 ft 480 kts 12°
2026-05-04 08:06 42.40833 4.93336 32241 ft 489 kts 12°
2026-05-04 08:06 42.44127 4.94655 31782 ft 497 kts 13°
2026-05-04 08:06 42.47443 4.95987 31313 ft 499 kts 12°
2026-05-04 08:06 42.50784 4.97326 30871 ft 500 kts 13°
2026-05-04 08:08 42.73653 5.06529 27576 ft 477 kts 13°
2026-05-04 08:08 42.76829 5.07814 27127 ft 474 kts 13°
2026-05-04 08:10 43.01418 5.17899 23640 ft 452 kts 20°
2026-05-04 08:11 43.04058 5.20230 23251 ft 452 kts 39°
2026-05-04 08:11 43.07497 5.27268 22641 ft 446 kts 67°
2026-05-04 08:11 43.08732 5.31185 22095 ft 448 kts 68°
2026-05-04 08:12 43.09940 5.35086 21505 ft 441 kts 68°
2026-05-04 08:12 43.11157 5.38901 20936 ft 434 kts 68°
2026-05-04 08:12 43.12375 5.42667 20369 ft 432 kts 67°
2026-05-04 08:12 43.13562 5.46408 19804 ft 425 kts 68°
2026-05-04 08:13 43.14724 5.50116 19262 ft 423 kts 68°
2026-05-04 08:13 43.15883 5.53790 18699 ft 417 kts 68°
2026-05-04 08:13 43.17035 5.57414 18132 ft 415 kts 68°
2026-05-04 08:13 43.18171 5.61008 17575 ft 409 kts 68°
2026-05-04 08:14 43.19292 5.64574 17053 ft 407 kts 69°
2026-05-04 08:14 43.20409 5.68134 16514 ft 405 kts 68°
2026-05-04 08:14 43.21514 5.71646 15977 ft 399 kts 69°
2026-05-04 08:16 43.28933 5.95379 12420 ft 377 kts 69°
2026-05-04 08:16 43.29957 5.98675 11934 ft 370 kts 69°
2026-05-04 08:16 43.30942 6.01834 11457 ft 349 kts 70°
2026-05-04 08:17 43.31867 6.04809 11021 ft 329 kts 70°
2026-05-04 08:17 43.32740 6.07629 10626 ft 313 kts 70°
2026-05-04 08:17 43.33576 6.10337 10233 ft 304 kts 70°
2026-05-04 08:17 43.34396 6.12986 9831 ft 298 kts 71°
2026-05-04 08:19 43.35941 6.30559 7199 ft 263 kts 127°
2026-05-04 08:19 43.34947 6.32663 6854 ft 262 kts 126°
2026-05-04 08:20 43.33967 6.34761 6503 ft 260 kts 126°
2026-05-04 08:20 43.32988 6.36845 6062 ft 259 kts 126°
2026-05-04 08:20 43.32035 6.38867 5969 ft 245 kts 126°
2026-05-04 08:20 43.31124 6.40795 6002 ft 252 kts 127°
2026-05-04 08:21 43.30148 6.42822 5981 ft 255 kts 126°
2026-05-04 08:21 43.29187 6.44892 6004 ft 259 kts 125°
2026-05-04 08:21 43.28236 6.46976 5991 ft 257 kts 122°
2026-05-04 08:21 43.27730 6.49329 5976 ft 260 kts 100°
2026-05-04 08:22 43.27572 6.51814 6003 ft 263 kts 98°
2026-05-04 08:22 43.27404 6.54305 6010 ft 261 kts 99°
2026-05-04 08:24 43.26604 6.71742 5922 ft 270 kts 76°
2026-05-04 08:24 43.27437 6.74077 5517 ft 270 kts 64°
2026-05-04 08:24 43.28350 6.76257 5189 ft 257 kts 64°
2026-05-04 08:24 43.29191 6.78351 4870 ft 244 kts 65°
2026-05-04 08:25 43.29976 6.80363 4558 ft 234 kts 65°
2026-05-04 08:25 43.30729 6.82275 4270 ft 220 kts 65°
2026-05-04 08:25 43.31433 6.84047 4003 ft 204 kts 65°
2026-05-04 08:25 43.32086 6.85695 3778 ft 189 kts 66°
2026-05-04 08:26 43.32694 6.87235 3552 ft 177 kts 65°
2026-05-04 08:27 43.36556 6.96847 2114 ft 159 kts 51°
2026-05-04 08:28 43.37471 6.97699 1983 ft 161 kts 26°
2026-05-04 08:28 43.38562 6.97944 1985 ft 161 kts
2026-05-04 08:28 43.39681 6.97739 2007 ft 164 kts 359°
2026-05-04 08:28 43.40815 6.97552 2010 ft 168 kts 359°
2026-05-04 08:29 43.41985 6.97352 2007 ft 170 kts 359°
2026-05-04 08:29 43.43152 6.97146 2007 ft 168 kts 359°
2026-05-04 08:29 43.44304 6.96941 2006 ft 164 kts 359°
2026-05-04 08:31 43.50605 6.95828 853 ft 122 kts 357°
2026-05-04 08:33 43.55344 6.94986 14 ft 13 kts 355°
2026-05-04 08:33 43.55391 6.95049 14 ft 8 kts 83°
2026-05-04 08:35 43.54900 6.95237 14 ft 15 kts 172°
2026-05-04 08:35 43.54802 6.95255 14 ft 14 kts 172°
2026-05-04 08:35 43.54750 6.95289 14 ft 6 kts 82°
2026-05-04 08:35 43.54754 6.95340 14 ft 5 kts 88°
2026-05-04 08:37 43.54720 6.95355 14 ft 0 kts 173°